QPF
0.00 0.00 0.00 0.00 0.00 0.00 0.00 0.00 0.00 0.00 0.00 0.00 0.00 0.00 0.00 0.00 0.00 0.00 0.00 0.00 0.00 0.00 0.00 0.00 0.00 0.00 0.00 0.00 0.00 0.00 0.00 0.00 0.00 0.00 0.00 0.00 0.00 0.00 0.00 0.00 0.00 0.00 0.00 0.00 0.00 0.00 0.00
0.00 0.00 0.00 0.00 0.00 0.00 0.00 0.00 0.00 0.00 0.00 0.00 0.00 0.00 0.00 0.00 0.00 0.00 0.00 0.00 0.00 0.00 0.00 0.00 0.00 0.00 0.00 0.00 0.00 0.00 0.00 0.00 0.00 0.00 0.00 0.00 0.00 0.00 0.00 0.00 0.00 0.00 0.00 0.00 0.00 0.00 0.00
0.00 0.00 0.00 0.00 0.00 0.00 0.00 0.00 0.00 0.00 0.00 0.00 0.00 0.00 0.00 0.00 0.00 0.00 0.00 0.00 0.00 0.00 0.00 0.00 0.00 0.00 0.00 0.00 0.00 0.00 0.00 0.00 0.00 0.00 0.00 0.00 0.00 0.00 0.00 0.00 0.00 0.00 0.00 0.00 0.00 0.00 0.00
0.00 0.00 0.00 0.00 0.00 0.00 0.00 0.00 0.00 0.00 0.00 0.00 0.00 0.00 0.00 0.00 0.00 0.00 0.00 0.00 0.00 0.00 0.00 0.00 0.00 0.00 0.00 0.00 0.00 0.00 0.00 0.00 0.00 0.00 0.00 0.00 0.00 0.00 0.00 0.00 0.00 0.00 0.00 0.00 0.00 0.00 0.00
0.00 0.00 0.00 0.00 0.00 0.00 0.00 0.00 0.00 0.00 0.00 0.00 0.00 0.00 0.00 0.00 0.00 0.00 0.00 0.00 0.00 0.00 0.00 0.00 0.00 0.00 0.00 0.00 0.00 0.00 0.00 0.00 0.00 0.00 0.00 0.00 0.00 0.00 0.00 0.00 0.00 0.00 0.00 0.00 0.00 0.00 0.00
0.00 0.00 0.00 0.00 0.00 0.00 0.00 0.00 0.00 0.00 0.00 0.00 0.00 0.00 0.00 0.00 0.00 0.00 0.00 0.00 0.00 0.00 0.00 0.00 0.00 0.00 0.00 0.00 0.00 0.00 0.00 0.00 0.00 0.00 0.00 0.00 0.00 0.00 0.00 0.00 0.00 0.00 0.00 0.00 0.00 0.00 0.00
0.00 0.00 0.00 0.00 0.00 0.00 0.00 0.00 0.00 0.00 0.00 0.00 0.00 0.00 0.00 0.00 0.00 0.00 0.00 0.00 0.00 0.00 0.00 0.00 0.00 0.00 0.00 0.00 0.00 0.00 0.00 0.00 0.00 0.00 0.00 0.00 0.00 0.00 0.00 0.00 0.00 0.00 0.00 0.00 0.00 0.00 0.00
0.00 0.00 0.00 0.00 0.00 0.00 0.00 0.00 0.00 0.00 0.00 0.00 0.00 0.00 0.00 0.00 0.00 0.00 0.00 0.00 0.00 0.00 0.00 0.00 0.00 0.00 0.00 0.00 0.00 0.00 0.00 0.00 0.00 0.00 0.00 0.00 0.00 0.00 0.00 0.00 0.00 0.00 0.00 0.00 0.00 0.00 0.00
0.00 0.00 0.00 0.00 0.00 0.00 0.00 0.00 0.00 0.00 0.00 0.00 0.00 0.00 0.00 0.00 0.00 0.00 0.00 0.00 0.00 0.00 0.00 0.00 0.00 0.00 0.00 0.00 0.00 0.00 0.00 0.00 0.00 0.00 0.00 0.00 0.00 0.00 0.00 0.00 0.00 0.00 0.00 0.00 0.00 0.00 0.00
0.00 0.00 0.00 0.00 0.00 0.00 0.00 0.00 0.00 0.00 0.00 0.00 0.00 0.00 0.00 0.00 0.00 0.00 0.00 0.00 0.00 0.00 0.00 0.00 0.00 0.00 0.00 0.00 0.00 0.00 0.00 0.00 0.00 0.00 0.00 0.00 0.00 0.00 0.00 0.00 0.00 0.00 0.00 0.00 0.00 0.00 0.00
0.00 0.00 0.00 0.00 0.00 0.00 0.00 0.00 0.00 0.00 0.00 0.00 0.00 0.00 0.00 0.00 0.00 0.00 0.00 0.00 0.00 0.00 0.00 0.00 0.00 0.00 0.00 0.00 0.00 0.00 0.00 0.00 0.00 0.00 0.00 0.00 0.00 0.00 0.00 0.00 0.00 0.00 0.00 0.00 0.00 0.00 0.00
0.00 0.00 0.00 0.00 0.00 0.00 0.00 0.00 0.00 0.00 0.00 0.00 0.00 0.00 0.00 0.00 0.00 0.00 0.00 0.00 0.00 0.00 0.00 0.00 0.00 0.00 0.00 0.00 0.00 0.00 0.00 0.00 0.00 0.00 0.00 0.00 0.00 0.00 0.00 0.00 0.00 0.00 0.00 0.00 0.00 0.00 0.00
0.00 0.00 0.00 0.00 0.00 0.00 0.00 0.00 0.00 0.00 0.00 0.00 0.00 0.00 0.00 0.00 0.00 0.00 0.00 0.00 0.00 0.00 0.00 0.00 0.00 0.00 0.00 0.00 0.00 0.00 0.00 0.00 0.00 0.00 0.00 0.00 0.00 0.00 0.00 0.00 0.00 0.00 0.00 0.00 0.00 0.00 0.00
0.01 0.00 0.00 0.00 0.00 0.00 0.00 0.00 0.00 0.00 0.00 0.00 0.00 0.00 0.00 0.00 0.00 0.00 0.00 0.00 0.00 0.00 0.00 0.00 0.00 0.00 0.00 0.00 0.00 0.00 0.00 0.00 0.00 0.00 0.00 0.00 0.00 0.00 0.00 0.00 0.00 0.00 0.00 0.00 0.00 0.00 0.00
0.02 0.00 0.00 0.00 0.00 0.00 0.00 0.00 0.00 0.00 0.00 0.00 0.00 0.00 0.00 0.00 0.00 0.00 0.00 0.00 0.00 0.00 0.00 0.00 0.00 0.00 0.00 0.00 0.00 0.00 0.00 0.00 0.00 0.00 0.00 0.00 0.00 0.00 0.00 0.00 0.00 0.00 0.00 0.00 0.00 0.00 0.00
0.02 0.01 0.00 0.00 0.00 0.00 0.00 0.00 0.00 0.00 0.00 0.00 0.00 0.00 0.00 0.00 0.00 0.00 0.00 0.00 0.00 0.00 0.00 0.00 0.00 0.00 0.00 0.00 0.00 0.00 0.00 0.00 0.00 0.00 0.00 0.00 0.00 0.00 0.00 0.00 0.00 0.00 0.00 0.00 0.00 0.00 0.00
0.02 0.03 0.02 0.00 0.00 0.00 0.00 0.00 0.00 0.00 0.00 0.00 0.00 0.00 0.00 0.00 0.00 0.00 0.00 0.00 0.00 0.00 0.00 0.00 0.00 0.00 0.00 0.00 0.00 0.00 0.00 0.00 0.00 0.00 0.00 0.00 0.00 0.00 0.00 0.00 0.00 0.00 0.00 0.00 0.00 0.00 0.00
0.00 0.01 0.02 0.02 0.00 0.00 0.00 0.00 0.00 0.00 0.00 0.00 0.00 0.00 0.00 0.00 0.00 0.00 0.00 0.00 0.00 0.00 0.00 0.00 0.00 0.00 0.00 0.00 0.00 0.00 0.00 0.00 0.00 0.00 0.00 0.00 0.00 0.00 0.00 0.00 0.00 0.00 0.00 0.00 0.00 0.00 0.00
0.00 0.00 0.01 0.02 0.02 0.00 0.00 0.00 0.00 0.00 0.00 0.01 0.00 0.00 0.00 0.00 0.00 0.00 0.00 0.00 0.00 0.00 0.00 0.00 0.00 0.00 0.00 0.00 0.00 0.00 0.00 0.00 0.00 0.00 0.00 0.00 0.00 0.00 0.00 0.00 0.00 0.00 0.00 0.00 0.00 0.00 0.00
0.00 0.00 0.00 0.00 0.01 0.02 0.01 0.01 0.01 0.01 0.01 0.02 0.00 0.00 0.00 0.00 0.00 0.00 0.00 0.00 0.00 0.00 0.00 0.00 0.00 0.00 0.00 0.00 0.00 0.00 0.00 0.00 0.00 0.00 0.00 0.00 0.00 0.00 0.00 0.00 0.00 0.00 0.00 0.00 0.00 0.00 0.00
0.00 0.00 0.00 0.00 0.00 0.01 0.02 0.02 0.02 0.01 0.01 0.01 0.00 0.00 0.00 0.00 0.00 0.00 0.00 0.00 0.00 0.00 0.00 0.00 0.00 0.00 0.00 0.00 0.00 0.00 0.00 0.00 0.00 0.00 0.00 0.00 0.00 0.00 0.00 0.00 0.00 0.00 0.00 0.00 0.00 0.00 0.00
0.00 0.00 0.00 0.00 0.00 0.00 0.01 0.02 0.01 0.01 0.00 0.00 0.00 0.00 0.00 0.00 0.00 0.00 0.00 0.00 0.00 0.00 0.00 0.00 0.00 0.00 0.00 0.00 0.00 0.00 0.00 0.00 0.00 0.00 0.00 0.00 0.00 0.00 0.00 0.00 0.00 0.00 0.00 0.00 0.00 0.00 0.00
0.00 0.00 0.00 0.00 0.00 0.00 0.00 0.00 0.00 0.00 0.00 0.00 0.00 0.00 0.00 0.00 0.00 0.00 0.00 0.00 0.00 0.00 0.00 0.00 0.00 0.00 0.00 0.00 0.00 0.00 0.00 0.00 0.00 0.00 0.00 0.00 0.00 0.00 0.00 0.00 0.00 0.00 0.00 0.00 0.00 0.00 0.00
0.00 0.00 0.00 0.00 0.00 0.00 0.00 0.00 0.00 0.00 0.00 0.00 0.00 0.00 0.00 0.00 0.00 0.00 0.00 0.00 0.00 0.00 0.00 0.00 0.00 0.00 0.00 0.00 0.00 0.00 0.00 0.00 0.00 0.00 0.00 0.00 0.00 0.00 0.00 0.00 0.00 0.00 0.00 0.00 0.00 0.00 0.00
0.00 0.00 0.00 0.00 0.00 0.00 0.00 0.00 0.00 0.00 0.00 0.00 0.00 0.00 0.00 0.00 0.00 0.00 0.00 0.00 0.00 0.00 0.00 0.00 0.00 0.00 0.00 0.00 0.00 0.00 0.00 0.00 0.00 0.00 0.00 0.00 0.00 0.00 0.00 0.00 0.00 0.00 0.00 0.00 0.00 0.00 0.00
0.00 0.00 0.00 0.00 0.00 0.00 0.00 0.00 0.00 0.00 0.00 0.00 0.00 0.00 0.00 0.00 0.00 0.00 0.00 0.00 0.00 0.00 0.00 0.00 0.00 0.00 0.00 0.00 0.00 0.00 0.00 0.00 0.00 0.00 0.00 0.00 0.00 0.00 0.00 0.00 0.00 0.00 0.00 0.00 0.00 0.00 0.00
0.00 0.00 0.00 0.00 0.00 0.00 0.00 0.00 0.00 0.00 0.00 0.00 0.00 0.00 0.00 0.00 0.00 0.00 0.00 0.00 0.00 0.00 0.00 0.00 0.00 0.00 0.00 0.00 0.00 0.00 0.00 0.00 0.00 0.00 0.00 0.00 0.00 0.00 0.00 0.00 0.00 0.00 0.00 0.00 0.01 0.00 0.00
0.00 0.00 0.00 0.00 0.00 0.00 0.00 0.00 0.00 0.00 0.00 0.00 0.00 0.00 0.00 0.00 0.00 0.00 0.00 0.00 0.00 0.00 0.00 0.00 0.00 0.00 0.00 0.00 0.00 0.00 0.00 0.00 0.00 0.00 0.00 0.00 0.00 0.00 0.01 0.01 0.00 0.00 0.00 0.00 0.00 0.00 0.00
0.00 0.00 0.00 0.00 0.00 0.00 0.00 0.00 0.00 0.00 0.00 0.00 0.00 0.00 0.00 0.00 0.00 0.00 0.00 0.00 0.00 0.00 0.00 0.00 0.00 0.00 0.00 0.00 0.00 0.00 0.00 0.00 0.00 0.00 0.00 0.00 0.00 0.00 0.00 0.00 0.00 0.00 0.00 0.00 0.00 0.00 0.00
MSLP
1016.78 1016.94 1017.41 1017.47 1017.77 1018.06 1018.37 1018.23 1018.19 1018.19 1018.56 1018.40 1018.22 1018.05 1017.75 1017.37 1016.58 1016.20 1016.14 1015.50 1014.71 1014.04 1013.70 1013.65 1013.46 1013.05 1012.16 1011.52 1009.59 1007.63 1007.84 1008.01 1008.17 1008.30 1008.33 1008.38 1008.48 1008.75 1008.92 1008.70 1008.60 1008.49 1008.08 1007.40 1006.90 1006.69 1006.45
1016.20 1016.44 1016.91 1017.10 1017.32 1017.51 1018.07 1017.95 1017.91 1017.82 1017.98 1018.24 1018.13 1017.85 1017.69 1017.29 1016.53 1015.85 1015.71 1015.24 1014.30 1013.53 1013.15 1013.23 1013.16 1012.94 1012.57 1011.14 1007.76 1007.45 1007.72 1008.11 1008.02 1008.19 1008.18 1008.31 1008.36 1008.42 1008.65 1008.54 1008.64 1007.99 1007.80 1007.16 1006.53 1006.16 1005.75
1015.78 1016.03 1016.39 1016.79 1016.97 1017.06 1017.60 1017.79 1017.51 1017.66 1017.56 1017.62 1017.75 1017.61 1017.39 1017.19 1016.39 1015.81 1015.14 1014.78 1013.83 1012.99 1012.32 1012.59 1012.61 1012.64 1011.99 1009.73 1007.67 1007.53 1008.04 1007.79 1007.51 1007.80 1008.02 1007.96 1008.11 1008.66 1008.46 1008.51 1007.99 1008.05 1007.81 1007.00 1006.19 1005.66 1005.21
1014.68 1015.29 1015.94 1016.21 1016.58 1016.50 1017.01 1017.63 1017.29 1017.31 1017.27 1017.30 1017.31 1017.34 1017.22 1016.94 1016.27 1015.54 1014.86 1014.23 1013.19 1012.25 1011.46 1011.64 1011.85 1012.02 1010.55 1007.80 1007.39 1007.49 1007.35 1007.07 1007.01 1007.05 1007.39 1007.25 1007.64 1008.13 1008.42 1008.29 1008.22 1008.52 1008.32 1007.70 1005.64 1005.59 1004.99
1013.94 1014.21 1014.88 1015.94 1015.93 1015.79 1016.50 1016.98 1017.20 1017.08 1017.06 1016.98 1016.97 1016.95 1016.91 1016.73 1016.27 1015.41 1014.73 1013.63 1012.18 1011.23 1010.92 1011.28 1011.84 1011.37 1009.36 1007.35 1007.37 1006.99 1006.91 1007.01 1006.98 1006.98 1007.06 1007.08 1007.42 1007.97 1008.35 1008.94 1009.41 1009.32 1009.00 1008.15 1006.52 1005.56 1005.43
1013.16 1013.29 1013.69 1015.25 1015.46 1015.28 1015.98 1016.04 1016.78 1016.85 1016.80 1016.62 1016.69 1016.69 1016.59 1016.58 1016.21 1015.57 1014.71 1013.00 1011.33 1011.13 1010.82 1011.03 1010.90 1011.10 1008.99 1008.03 1007.63 1007.27 1006.72 1006.79 1007.06 1007.23 1007.41 1007.59 1008.10 1008.54 1009.25 1009.83 1009.92 1009.61 1009.26 1008.15 1007.43 1005.62 1005.50
1012.00 1012.65 1013.03 1013.96 1014.89 1014.93 1015.12 1015.71 1015.98 1016.52 1016.40 1016.29 1016.34 1016.47 1016.52 1016.37 1016.17 1015.67 1015.13 1013.67 1012.68 1012.02 1012.13 1011.76 1011.01 1010.31 1009.35 1008.17 1007.40 1006.90 1006.64 1006.98 1007.17 1007.62 1008.30 1008.35 1009.04 1009.13 1009.06 1009.23 1008.89 1008.93 1008.84 1008.28 1007.09 1006.27 1005.78
1011.19 1011.94 1012.07 1013.19 1013.98 1014.41 1014.59 1015.20 1015.34 1015.77 1016.10 1016.02 1015.95 1016.20 1016.34 1016.38 1015.95 1015.59 1015.47 1014.90 1014.82 1014.81 1012.62 1010.85 1010.05 1009.82 1008.71 1008.81 1008.12 1006.76 1006.50 1007.22 1007.56 1008.01 1008.54 1009.04 1008.97 1008.17 1008.31 1008.57 1008.67 1008.62 1008.43 1007.66 1006.95 1006.22 1006.24
1010.30 1011.14 1011.38 1012.29 1013.24 1013.48 1013.96 1014.49 1015.00 1015.01 1015.72 1015.69 1015.68 1016.16 1016.17 1016.38 1016.22 1015.44 1015.57 1015.08 1014.48 1014.24 1013.82 1010.34 1008.96 1008.27 1007.54 1008.22 1007.74 1006.79 1006.62 1006.85 1007.37 1007.88 1008.46 1008.75 1007.87 1007.76 1007.98 1007.92 1008.04 1007.97 1007.66 1007.38 1007.06 1006.91 1006.57
1009.45 1010.25 1010.79 1011.51 1012.29 1012.45 1013.19 1013.73 1014.40 1014.63 1015.23 1015.31 1015.41 1015.78 1016.16 1016.33 1016.57 1015.99 1015.37 1014.70 1014.39 1014.28 1013.77 1010.05 1008.27 1007.31 1007.10 1007.22 1007.18 1006.41 1006.19 1006.52 1006.99 1007.59 1007.97 1008.06 1007.22 1007.41 1007.55 1007.68 1007.67 1007.42 1007.08 1007.02 1007.15 1007.58 1007.76
1008.40 1009.24 1010.16 1010.72 1011.53 1011.46 1012.45 1012.88 1013.72 1014.27 1014.80 1014.87 1015.09 1015.45 1016.07 1016.49 1016.66 1016.31 1015.09 1014.60 1014.24 1014.40 1013.03 1009.03 1007.85 1006.98 1007.01 1007.45 1007.17 1006.26 1006.02 1006.40 1007.08 1007.43 1007.98 1007.74 1007.38 1007.40 1007.49 1007.21 1007.22 1007.02 1006.96 1007.16 1007.39 1007.99 1008.14
1007.65 1008.43 1009.21 1010.00 1010.68 1010.84 1011.47 1012.27 1012.85 1013.90 1014.34 1014.72 1014.79 1015.24 1015.93 1016.46 1016.56 1015.92 1015.02 1014.73 1014.44 1014.44 1011.85 1009.09 1008.17 1007.79 1007.93 1007.56 1007.31 1006.65 1006.51 1006.63 1006.83 1007.40 1007.48 1007.53 1007.14 1007.15 1006.67 1006.60 1006.77 1006.84 1007.24 1007.69 1007.89 1008.59 1008.44
1006.79 1007.74 1008.32 1009.23 1009.71 1010.26 1010.67 1011.46 1012.36 1013.18 1013.83 1014.42 1014.64 1015.02 1015.72 1015.63 1015.85 1015.50 1014.97 1014.92 1015.25 1014.11 1011.06 1009.98 1009.28 1009.14 1008.89 1008.33 1007.92 1007.53 1007.52 1007.50 1007.76 1007.95 1008.03 1007.83 1007.34 1006.70 1006.71 1006.97 1007.07 1007.27 1008.03 1008.89 1008.85 1009.28 1008.79
1006.22 1006.83 1007.66 1008.13 1009.02 1009.37 1010.04 1010.53 1012.10 1012.45 1013.14 1013.95 1014.31 1015.01 1015.24 1015.14 1015.49 1015.65 1015.50 1015.87 1015.43 1013.62 1011.98 1010.72 1010.47 1009.82 1009.76 1009.12 1008.62 1008.27 1008.19 1008.24 1008.23 1008.70 1008.81 1008.43 1007.40 1007.30 1007.45 1007.50 1007.57 1008.01 1008.97 1009.79 1009.71 1009.86 1009.35
1005.28 1006.08 1006.65 1007.07 1008.16 1008.51 1009.22 1009.80 1011.44 1012.01 1012.76 1013.53 1014.38 1015.12 1015.11 1014.88 1015.67 1015.99 1016.35 1016.06 1014.45 1013.32 1011.96 1011.55 1011.17 1011.03 1010.38 1009.75 1009.88 1009.70 1009.38 1009.28 1009.46 1009.92 1010.26 1009.63 1008.59 1007.85 1007.83 1007.85 1008.23 1008.61 1009.33 1009.73 1010.50 1010.78 1010.80
1004.60 1005.06 1005.52 1006.18 1006.92 1007.63 1008.40 1009.29 1010.54 1011.48 1012.38 1013.27 1014.29 1014.93 1014.98 1014.96 1015.50 1016.21 1016.35 1015.20 1014.19 1012.93 1012.37 1012.20 1012.55 1012.13 1011.67 1011.48 1011.58 1011.10 1010.29 1010.07 1010.40 1010.73 1010.90 1010.82 1010.19 1009.08 1008.97 1008.62 1008.53 1008.64 1009.33 1010.85 1012.05 1011.87 1010.98
1003.54 1003.92 1004.50 1005.36 1005.97 1006.78 1007.50 1008.65 1009.64 1010.98 1011.80 1012.63 1013.83 1014.86 1015.00 1015.15 1015.46 1016.12 1015.74 1014.77 1013.79 1012.89 1012.65 1012.82 1012.71 1012.54 1012.19 1012.09 1011.87 1011.67 1010.79 1010.69 1010.82 1011.22 1011.54 1011.87 1012.06 1010.47 1010.09 1009.77 1009.41 1009.65 1009.85 1010.81 1012.10 1012.13 1011.55
1002.27 1002.95 1003.54 1004.27 1005.14 1006.02 1006.82 1007.77 1008.81 1010.25 1011.26 1012.13 1013.19 1014.62 1015.53 1015.43 1015.95 1015.33 1015.02 1014.30 1013.52 1012.91 1012.63 1012.93 1012.98 1012.75 1012.58 1012.55 1012.22 1012.06 1011.22 1011.09 1011.07 1011.40 1011.98 1012.37 1012.70 1012.33 1011.61 1010.64 1010.25 1010.50 1011.00 1011.62 1012.92 1012.81 1012.37
1001.73 1001.90 1002.65 1003.52 1004.49 1005.32 1006.41 1006.99 1008.13 1009.32 1009.93 1011.63 1012.94 1014.75 1015.70 1015.40 1015.52 1015.20 1014.82 1014.43 1013.77 1013.25 1013.07 1013.13 1013.04 1012.95 1012.96 1013.18 1013.29 1012.40 1011.96 1011.54 1011.57 1011.83 1012.03 1012.83 1013.24 1013.40 1012.08 1011.68 1010.99 1011.16 1011.55 1012.38 1013.24 1014.29 1013.81
1000.71 1000.99 1002.11 1002.92 1003.72 1004.29 1005.31 1005.84 1007.27 1008.05 1008.80 1010.23 1012.54 1014.96 1015.69 1015.28 1015.09 1014.47 1014.77 1014.19 1014.02 1013.81 1013.50 1013.39 1013.47 1013.69 1013.92 1013.71 1013.40 1012.90 1012.78 1012.61 1012.65 1012.78 1013.04 1013.22 1013.57 1013.37 1012.95 1012.70 1012.67 1012.57 1012.43 1012.87 1013.61 1014.36 1014.01
1000.10 1000.49 1001.01 1002.09 1002.71 1003.29 1003.85 1005.08 1006.19 1006.87 1007.91 1009.09 1011.02 1012.32 1013.31 1014.03 1014.46 1013.97 1014.21 1013.87 1013.91 1013.76 1013.78 1013.74 1013.88 1013.74 1013.97 1014.09 1014.01 1013.66 1013.66 1013.57 1013.51 1013.60 1013.98 1014.66 1014.54 1014.32 1013.70 1013.60 1013.38 1013.14 1013.20 1013.50 1013.67 1013.49 1013.70
999.14 1000.22 1000.41 1000.88 1001.95 1002.66 1003.30 1003.38 1004.62 1005.81 1007.36 1008.53 1010.02 1011.93 1013.06 1012.89 1013.03 1013.64 1013.83 1013.55 1013.37 1013.41 1013.82 1013.85 1013.64 1013.89 1014.21 1014.27 1014.26 1014.24 1014.41 1014.46 1014.56 1014.67 1014.75 1015.20 1015.48 1015.42 1014.91 1014.57 1014.28 1013.36 1013.06 1013.07 1013.15 1013.23 1013.32
998.67 999.29 999.61 1000.70 1001.35 1001.67 1002.36 1003.00 1003.93 1005.18 1006.43 1008.63 1009.82 1011.22 1011.35 1012.55 1013.08 1013.03 1012.80 1012.48 1012.51 1012.83 1013.37 1013.49 1013.87 1014.25 1014.40 1014.77 1014.95 1015.18 1015.43 1015.46 1015.38 1015.33 1015.34 1015.73 1016.02 1016.20 1015.10 1015.10 1014.49 1013.38 1013.06 1012.58 1012.40 1012.53 1013.22
998.35 998.79 998.92 999.80 1000.93 1001.39 1002.27 1002.66 1003.28 1004.04 1005.21 1006.61 1008.63 1009.91 1011.15 1011.93 1012.33 1012.20 1012.35 1012.66 1012.78 1012.93 1013.57 1013.96 1014.19 1014.53 1015.16 1015.17 1015.80 1015.92 1015.95 1015.76 1015.63 1015.38 1015.28 1015.56 1016.00 1016.32 1015.53 1015.49 1014.51 1013.10 1012.70 1012.65 1012.79 1013.28 1013.74
997.55 997.91 998.62 999.33 1000.13 1000.94 1001.49 1002.19 1003.22 1003.95 1004.50 1006.14 1007.93 1008.30 1009.68 1011.19 1011.57 1012.11 1012.40 1012.77 1013.27 1013.68 1014.27 1014.27 1014.58 1014.78 1015.06 1015.71 1016.45 1016.58 1016.02 1015.47 1014.71 1014.40 1014.15 1014.71 1015.63 1016.13 1016.14 1015.59 1014.38 1013.72 1013.31 1013.60 1013.66 1014.31 1014.85
996.95 997.75 998.08 998.76 999.63 1000.50 1001.60 1002.33 1003.18 1004.02 1004.54 1005.99 1007.66 1007.66 1008.62 1010.34 1011.85 1011.75 1012.34 1012.88 1013.33 1014.05 1014.83 1014.97 1014.99 1015.20 1015.59 1016.27 1017.13 1017.73 1016.99 1016.16 1015.39 1014.68 1014.31 1014.87 1015.52 1016.73 1016.79 1016.31 1015.05 1014.23 1014.38 1014.18 1014.07 1014.47 1014.87
997.21 997.28 997.86 999.29 1000.54 1001.12 1001.98 1002.88 1003.46 1004.21 1005.05 1005.75 1007.60 1007.64 1008.61 1010.78 1012.07 1011.73 1011.89 1012.47 1013.18 1014.10 1014.77 1015.28 1015.43 1015.70 1015.94 1017.26 1018.30 1018.45 1018.05 1017.06 1016.64 1015.89 1015.59 1015.55 1015.90 1016.49 1016.56 1016.32 1015.32 1015.07 1015.01 1014.96 1015.14 1015.07 1014.55
996.63 997.28 999.01 1000.42 1001.47 1002.10 1002.69 1003.17 1004.03 1004.68 1005.13 1005.44 1007.53 1007.74 1008.26 1010.77 1011.68 1011.36 1011.76 1012.19 1012.77 1013.24 1014.41 1015.08 1015.72 1016.48 1017.34 1018.30 1019.03 1019.06 1018.70 1017.82 1017.48 1016.89 1016.67 1016.91 1016.92 1016.99 1016.79 1016.11 1015.43 1014.61 1014.46 1014.87 1014.34 1013.96 1013.98
996.61 998.65 999.94 1000.70 1001.76 1002.31 1003.13 1003.85 1004.48 1005.03 1005.36 1005.70 1007.70 1008.17 1008.17 1009.73 1011.95 1011.93 1012.09 1012.33 1012.37 1012.70 1013.57 1014.69 1015.29 1015.90 1016.88 1018.26 1019.04 1019.18 1018.87 1018.29 1017.86 1017.38 1016.64 1016.66 1016.72 1017.32 1017.31 1015.95 1014.49 1013.83 1013.80 1013.45 1013.48 1013.81 1013.88
Thickness
5672 5675 5675 5679 5678 5676 5677 5682 5684 5686 5683 5683 5685 5685 5688 5691 5696 5695 5692 5695 5699 5702 5702 5699 5699 5701 5706 5698 5710 5738 5736 5734 5732 5728 5722 5720 5716 5711 5702 5710 5712 5709 5717 5728 5734 5733 5732
5669 5671 5670 5673 5675 5675 5670 5676 5679 5683 5683 5678 5678 5680 5682 5686 5692 5695 5691 5692 5698 5702 5702 5698 5697 5697 5696 5686 5733 5735 5732 5728 5726 5722 5718 5717 5712 5713 5706 5707 5703 5715 5716 5722 5732 5731 5731
5661 5665 5666 5666 5669 5671 5667 5669 5675 5677 5680 5679 5676 5675 5678 5680 5687 5691 5693 5691 5697 5703 5704 5698 5696 5696 5690 5698 5729 5730 5725 5725 5728 5721 5713 5717 5715 5706 5708 5701 5715 5712 5704 5717 5729 5728 5729
5661 5662 5660 5662 5662 5668 5665 5661 5669 5672 5676 5675 5673 5672 5673 5675 5681 5687 5691 5692 5697 5704 5707 5700 5698 5695 5692 5724 5724 5724 5726 5724 5727 5726 5719 5722 5719 5708 5703 5710 5703 5693 5693 5685 5725 5725 5730
5656 5662 5660 5652 5660 5667 5662 5659 5659 5665 5669 5671 5670 5668 5668 5669 5673 5682 5687 5693 5700 5707 5706 5698 5693 5693 5695 5724 5715 5721 5724 5715 5717 5720 5719 5720 5714 5700 5699 5682 5668 5674 5661 5674 5701 5718 5713
5650 5659 5662 5648 5653 5663 5658 5662 5655 5658 5662 5666 5665 5664 5664 5665 5667 5671 5681 5692 5702 5703 5703 5694 5696 5687 5701 5703 5709 5711 5720 5716 5707 5706 5701 5698 5689 5680 5667 5658 5645 5655 5659 5673 5677 5713 5706
5652 5652 5656 5651 5647 5655 5658 5655 5656 5652 5657 5661 5661 5658 5658 5660 5659 5664 5670 5679 5679 5682 5682 5676 5681 5683 5690 5704 5711 5707 5711 5705 5702 5692 5673 5684 5667 5657 5665 5666 5676 5673 5666 5661 5679 5693 5690
5648 5646 5654 5649 5645 5649 5654 5650 5653 5651 5651 5655 5657 5654 5653 5652 5655 5657 5658 5660 5657 5658 5670 5683 5686 5683 5693 5692 5685 5699 5708 5688 5683 5668 5671 5667 5657 5676 5677 5673 5670 5667 5661 5668 5672 5688 5680
5644 5643 5648 5646 5643 5646 5649 5648 5646 5648 5647 5649 5651 5646 5647 5643 5645 5651 5649 5650 5654 5657 5648 5679 5692 5689 5693 5688 5681 5689 5697 5688 5677 5670 5662 5658 5673 5684 5675 5673 5667 5663 5660 5658 5661 5666 5669
5638 5638 5641 5642 5642 5646 5645 5645 5641 5642 5642 5644 5645 5642 5638 5636 5635 5639 5640 5647 5647 5648 5630 5672 5686 5691 5692 5689 5678 5696 5699 5690 5679 5666 5666 5662 5682 5674 5664 5660 5661 5647 5671 5663 5656 5641 5625
5634 5635 5632 5637 5638 5646 5641 5641 5638 5635 5636 5638 5639 5636 5631 5626 5626 5627 5639 5641 5640 5635 5608 5678 5680 5696 5688 5676 5677 5686 5697 5683 5665 5668 5661 5657 5665 5659 5653 5655 5663 5652 5661 5654 5653 5634 5622
5624 5626 5627 5631 5632 5638 5639 5636 5634 5629 5628 5629 5632 5629 5624 5620 5621 5625 5631 5634 5632 5611 5612 5659 5665 5665 5665 5670 5670 5678 5677 5680 5677 5660 5659 5656 5671 5663 5657 5663 5659 5656 5647 5638 5630 5618 5611
5616 5618 5623 5624 5628 5631 5634 5633 5628 5625 5623 5621 5623 5622 5618 5618 5616 5618 5621 5621 5599 5595 5655 5647 5644 5645 5647 5654 5657 5660 5656 5651 5640 5631 5638 5646 5650 5658 5656 5641 5641 5636 5619 5586 5587 5585 5597
5606 5610 5613 5619 5622 5627 5628 5629 5620 5621 5619 5614 5614 5612 5613 5615 5612 5608 5607 5594 5585 5614 5628 5644 5631 5635 5629 5642 5648 5648 5643 5633 5646 5634 5616 5615 5624 5640 5639 5628 5621 5617 5605 5584 5572 5569 5590
5600 5604 5610 5616 5617 5622 5623 5623 5614 5615 5611 5607 5604 5603 5607 5609 5601 5596 5589 5579 5599 5613 5626 5621 5625 5612 5623 5636 5623 5625 5628 5624 5625 5617 5609 5601 5608 5627 5623 5621 5613 5602 5585 5589 5562 5560 5553
5594 5600 5607 5611 5614 5616 5618 5616 5610 5607 5603 5600 5595 5594 5599 5600 5593 5587 5581 5589 5599 5615 5615 5611 5599 5606 5599 5605 5602 5606 5612 5613 5605 5605 5605 5595 5582 5607 5602 5603 5601 5593 5585 5556 5531 5536 5545
5591 5600 5605 5608 5610 5612 5615 5610 5607 5600 5598 5595 5589 5586 5588 5588 5585 5578 5577 5589 5595 5609 5609 5598 5595 5594 5598 5598 5598 5599 5603 5604 5596 5591 5587 5578 5566 5585 5581 5576 5573 5567 5559 5549 5532 5530 5526
5590 5598 5603 5606 5608 5608 5609 5605 5603 5595 5593 5588 5584 5586 5569 5573 5575 5576 5582 5588 5597 5597 5601 5595 5589 5592 5593 5589 5584 5583 5587 5585 5586 5580 5570 5562 5548 5532 5553 5564 5564 5554 5543 5534 5493 5507 5497
5586 5596 5599 5604 5602 5603 5601 5603 5598 5594 5592 5581 5576 5560 5556 5561 5566 5562 5569 5575 5583 5585 5584 5584 5582 5582 5579 5574 5565 5572 5571 5577 5575 5568 5561 5550 5530 5511 5543 5544 5544 5535 5526 5511 5493 5460 5457
5583 5594 5597 5600 5599 5603 5602 5603 5596 5595 5591 5580 5562 5548 5543 5549 5548 5573 5567 5567 5570 5566 5571 5572 5568 5562 5558 5554 5559 5557 5554 5556 5552 5545 5538 5534 5518 5513 5534 5518 5508 5497 5497 5489 5470 5427 5440
5578 5586 5594 5595 5600 5603 5602 5599 5595 5594 5590 5582 5566 5561 5556 5550 5547 5555 5562 5565 5558 5563 5554 5554 5548 5557 5549 5535 5536 5541 5536 5534 5526 5527 5516 5497 5483 5486 5493 5492 5484 5478 5469 5462 5454 5453 5426
5576 5579 5593 5597 5597 5600 5603 5605 5599 5593 5586 5574 5558 5553 5544 5551 5553 5549 5548 5548 5553 5551 5541 5537 5545 5536 5535 5530 5527 5520 5517 5511 5501 5493 5492 5483 5457 5460 5419 5458 5455 5454 5451 5446 5442 5437 5429
5569 5577 5587 5588 5592 5599 5598 5600 5599 5590 5582 5564 5559 5550 5555 5540 5535 5540 5543 5554 5548 5546 5534 5534 5525 5521 5519 5514 5505 5493 5482 5480 5476 5471 5465 5454 5441 5434 5442 5438 5433 5416 5425 5427 5427 5426 5411
5562 5573 5582 5585 5585 5591 5590 5593 5592 5588 5582 5574 5559 5552 5543 5537 5534 5538 5538 5534 5532 5529 5520 5514 5510 5505 5493 5489 5477 5470 5462 5460 5458 5455 5453 5438 5429 5419 5411 5415 5386 5426 5428 5415 5402 5392 5378
5562 5573 5577 5580 5583 5585 5586 5586 5581 5578 5578 5568 5554 5554 5542 5527 5531 5527 5525 5520 5513 5509 5499 5496 5491 5486 5480 5468 5453 5458 5459 5459 5458 5454 5451 5437 5423 5402 5385 5390 5394 5400 5403 5378 5371 5365 5358
5559 5566 5573 5578 5579 5578 5575 5574 5569 5568 5566 5558 5547 5549 5544 5529 5517 5518 5508 5503 5497 5488 5480 5475 5476 5469 5462 5443 5437 5425 5434 5440 5438 5434 5439 5421 5392 5361 5341 5328 5336 5375 5371 5370 5369 5351 5352
5551 5564 5570 5567 5564 5565 5562 5558 5556 5555 5550 5550 5535 5537 5529 5505 5492 5504 5500 5495 5487 5476 5464 5459 5456 5451 5445 5409 5394 5407 5405 5413 5389 5400 5394 5386 5358 5324 5339 5338 5352 5349 5343 5355 5341 5337 5343
5551 5561 5555 5550 5548 5545 5545 5545 5541 5540 5539 5539 5523 5524 5518 5491 5488 5495 5490 5485 5476 5469 5448 5445 5437 5423 5400 5375 5379 5365 5368 5384 5373 5372 5361 5350 5337 5329 5336 5334 5325 5351 5352 5331 5341 5342 5343
5547 5543 5538 5538 5536 5536 5534 5530 5528 5525 5526 5527 5509 5508 5507 5492 5474 5474 5471 5468 5466 5461 5442 5433 5428 5414 5397 5373 5349 5355 5361 5356 5356 5330 5356 5341 5338 5323 5325 5322 5345 5349 5337 5342 5335 5321 5324